Frankfort, KY

12:03 PM EST on February 25, 2017 (GMT -0500)
Capital City

Weather History for KFFT - August, 2014

Change the Weather History Date:

Saturday, August 30, 2014

  Actual Average Record
Temperature  
Mean Temperature 78 °F 73 °F  
Max Temperature 88 °F 85 °F 99 °F (1953)
Min Temperature 67 °F 62 °F 42 °F (1986)
Degree Days  
Heating Degree Days 0 0  
Month to date heating degree days 0 0  
Since 1 June heating degree days 6 10  
Since 1 July heating degree days 3 0  
Cooling Degree Days 13 8  
Month to date cooling degree days 305 309  
Year to date cooling degree days 917 994  
Since 1 June cooling degree days 795 895  
Growing Degree Days 28 (Base 50)    
Moisture  
Dew Point 68 °F    
Average Humidity 76    
Maximum Humidity 100    
Minimum Humidity 51    
Precipitation  
Precipitation 0.09 in 0.12 in 2.59 in (2005)
Month to date precipitation 5.24 3.25  
Year to date precipitation 32.97 31.20  
Sea Level Pressure  
Sea Level Pressure 30.04 in    
Wind  
Wind Speed 6 mph (South)    
Max Wind Speed 17 mph    
Max Gust Speed 21 mph    
Visibility 9 miles    
Events Rain , Thunderstorm    
T = Trace of Precipitation, MM = Missing Value Source: NWS Daily Summary

Daily Weather History Graph

Daily Weather History Graph

Search for Another Location

Airport or City:

Trip Planner

Search our weather history database for the weather conditions in past years. The results will help you decide how hot, cold, wet, or windy it might be!

Date:

Astronomy

Aug. 30, 2014 Rise Set
Actual Time 7:07 AM EDT 8:12 PM EDT
Civil Twilight 6:40 AM EDT 8:39 PM EDT
Nautical Twilight 6:08 AM EDT 9:11 PM EDT
Astronomical Twilight 5:34 AM EDT 9:44 PM EDT
Moon 11:49 AM EDT (8/30) 10:50 PM EDT (8/30)
Length of Visible Light 13h 58m
Length of Day
13h 04m
Waxing Crescent, 23% of the Moon is Illuminated
Aug 30
Waxing Crescent
Sep 2
First Quarter
Sep 8
Full
Sep 15
Last Quarter
Sep 24
New

Hourly Weather History & Observations

Time (EDT) Temp. Heat Index Dew Point Humidity Pressure Visibility Wind Dir Wind Speed Gust Speed Precip Events Conditions
12:53 AM 71.1 °F - 66.0 °F 84% 30.03 in 10.0 mi SSE 3.5 mph - N/A   Clear
1:53 AM 71.1 °F - 66.9 °F 87% 30.04 in 10.0 mi Calm Calm - N/A   Clear
2:53 AM 72.0 °F - 66.9 °F 84% 30.03 in 10.0 mi SSE 4.6 mph - N/A   Partly Cloudy
4:53 AM 70.0 °F - 64.9 °F 84% 30.03 in 10.0 mi Calm Calm - N/A   Clear
5:53 AM 68.0 °F - 64.9 °F 90% 30.03 in 10.0 mi Calm Calm - N/A   Clear
6:53 AM 68.0 °F - 64.9 °F 90% 30.04 in 10.0 mi SE 3.5 mph - N/A   Clear
7:53 AM 71.1 °F - 66.0 °F 84% 30.04 in 10.0 mi SSE 4.6 mph - N/A   Clear
8:53 AM 75.0 °F - 64.9 °F 71% 30.04 in 10.0 mi SSE 8.1 mph - N/A   Clear
9:53 AM 78.1 °F - 66.0 °F 66% 30.05 in 10.0 mi SSW 9.2 mph - N/A   Clear
10:53 AM 82.9 °F 85.0 °F 66.0 °F 56% 30.06 in 10.0 mi SSW 10.4 mph - N/A   Clear
11:53 AM 84.0 °F 86.5 °F 66.9 °F 56% 30.06 in 10.0 mi SSW 11.5 mph - N/A   Overcast
12:53 PM 86.0 °F 89.4 °F 68.0 °F 55% 30.05 in 10.0 mi SSW 9.2 mph - N/A   Clear
1:53 PM 88.0 °F 91.4 °F 68.0 °F 51% 30.04 in 10.0 mi SSW 10.4 mph - N/A   Clear
2:53 PM 86.0 °F 88.8 °F 66.9 °F 53% 30.03 in 10.0 mi South 11.5 mph - N/A   Partly Cloudy
3:53 PM 84.9 °F 88.8 °F 69.1 °F 59% 30.01 in 10.0 mi SSW 11.5 mph - N/A   Mostly Cloudy
4:53 PM 84.0 °F 88.4 °F 70.0 °F 63% 30.00 in 10.0 mi SSW 12.7 mph - N/A   Scattered Clouds
5:53 PM 82.0 °F 85.9 °F 70.0 °F 67% 30.01 in 10.0 mi WSW 8.1 mph - N/A   Mostly Cloudy
6:53 PM 77.0 °F - 68.0 °F 74% 30.02 in 10.0 mi NW 5.8 mph - N/A   Mostly Cloudy
7:53 PM 73.9 °F - 69.1 °F 85% 30.03 in 8.0 mi SE 3.5 mph - 0.01 in Rain , Thunderstorm Light Rain
8:01 PM 73.9 °F - 70.0 °F 87% 30.05 in 7.0 mi ESE 3.5 mph - 0.00 in   Overcast
8:12 PM 73.9 °F - 70.0 °F 87% 30.05 in 7.0 mi ESE 4.6 mph - 0.00 in   Overcast
8:53 PM 73.0 °F - 71.1 °F 93% 30.02 in 6.0 mi ESE 3.5 mph - 0.00 in   Mostly Cloudy
9:53 PM 73.0 °F - 71.1 °F 93% 30.05 in 6.0 mi SW 3.5 mph - N/A   Scattered Clouds
11:53 PM 73.0 °F - 71.1 °F 93% 30.05 in 5.0 mi South 4.6 mph - 0.01 in   Overcast